Dewpoint
72 73 72 66 53 54 53 54 57 53 56 55 50 50 51 55 53 53 65 68 69 71 74 75 76 76 76 76 75 75 74 75 75 75 74 74 74 74 74 74 74 74 74 73 73 73 73 73 73
72 71 65 59 51 49 51 56 53 54 56 52 52 52 52 55 62 64 65 68 70 73 74 74 76 76 75 76 75 75 74 75 75 75 75 75 74 72 73 72 74 74 73 74 74 74 73 73 73
67 66 57 56 53 48 50 53 54 56 57 56 52 48 54 57 63 65 67 69 72 73 73 74 76 76 75 76 75 75 74 75 75 75 75 75 74 73 73 73 74 74 74 73 73 73 72 71 71
66 61 61 53 50 53 53 54 55 56 57 50 47 49 55 61 61 66 69 71 72 73 73 75 75 75 75 76 76 76 75 75 75 75 74 74 73 72 73 74 73 74 73 72 73 74 73 73 73
66 60 53 52 52 55 55 56 57 56 55 50 47 47 55 62 67 68 70 71 72 73 73 74 75 74 75 75 75 75 75 75 75 74 75 73 72 72 74 74 73 73 74 74 72 72 74 73 73
56 58 49 49 51 54 53 55 56 56 51 46 49 49 55 66 66 68 69 71 72 72 73 73 75 76 76 75 74 74 74 75 75 75 73 74 74 74 74 74 74 74 73 73 73 71 71 73 73
57 54 50 52 52 52 54 55 55 54 52 47 48 49 59 64 66 68 68 70 71 72 73 73 73 74 74 73 75 75 74 75 75 75 73 74 75 74 74 74 74 73 73 73 73 73 73 73 72
62 58 55 54 52 50 53 55 57 56 53 49 54 54 56 61 66 66 67 69 71 72 73 73 73 70 71 73 74 76 74 75 74 75 75 74 75 75 74 74 73 73 73 74 73 73 73 73 73
65 54 52 51 52 49 55 55 58 58 47 51 52 55 57 64 64 64 67 69 71 72 72 73 73 73 73 73 73 74 74 74 75 75 75 74 73 73 74 75 74 73 73 73 73 73 73 73 74
59 54 53 55 52 52 53 55 56 56 55 56 51 58 62 63 62 65 65 67 69 70 71 72 72 72 72 72 73 73 73 73 73 74 74 74 73 73 73 74 75 75 74 74 74 74 74 73 73
57 50 53 52 53 54 54 52 56 56 56 56 50 57 60 61 63 64 64 66 67 69 71 72 72 72 72 73 73 72 72 73 73 73 73 74 73 73 74 73 75 74 75 74 74 74 73 73 73
53 55 54 55 55 55 54 54 53 56 55 56 51 57 59 62 63 63 64 65 65 67 70 72 72 72 72 72 73 72 71 73 73 73 73 73 73 72 73 73 73 73 73 72 73 73 73 72 73
55 53 53 54 55 54 52 52 54 54 56 55 51 56 59 62 63 64 64 65 65 66 68 71 72 72 71 72 73 72 71 71 72 72 72 73 72 72 72 72 72 73 73 73 73 73 73 73 73
52 53 52 53 53 53 54 54 53 54 57 53 54 56 59 61 62 63 65 66 67 66 67 70 71 71 71 71 72 72 71 70 71 72 72 72 71 72 72 71 71 72 73 73 73 73 73 72 72
53 49 50 49 52 50 53 52 52 54 56 50 52 58 61 61 62 63 65 66 67 66 67 69 70 70 70 71 71 71 71 70 69 70 71 72 71 71 72 71 71 72 73 73 73 72 73 73 73
50 48 44 46 50 50 50 47 51 55 55 52 48 51 61 63 63 64 65 66 66 66 67 68 69 70 70 70 71 71 71 70 69 69 71 71 72 71 71 72 72 73 73 72 73 73 73 72 71
47 42 44 44 49 50 49 46 50 55 54 52 49 48 50 55 62 63 64 64 64 65 67 68 69 70 70 70 70 70 70 70 71 70 70 71 71 72 72 72 73 73 73 72 72 72 73 72 72
41 41 43 43 45 48 48 48 50 54 54 53 52 52 52 54 55 58 60 63 63 65 67 68 69 70 70 69 69 69 70 70 70 70 70 70 71 72 72 73 73 73 72 72 72 72 72 72 72
45 44 43 43 45 47 45 46 50 52 54 54 54 54 54 53 55 57 58 60 62 64 66 68 69 69 69 68 68 68 68 69 70 70 71 71 71 72 73 73 73 73 72 72 73 73 73 72 72
45 42 40 43 45 45 45 45 47 52 53 54 54 54 54 54 55 57 57 59 62 64 66 67 68 68 68 68 68 68 68 69 70 71 71 71 72 72 73 73 73 72 73 72 73 73 72 72 73
44 39 39 38 41 47 47 39 48 50 51 53 54 55 55 55 55 57 57 59 62 63 65 67 68 68 68 68 67 68 69 70 70 71 71 71 72 73 73 73 74 73 73 73 73 72 72 72 72
41 42 41 39 39 35 42 34 40 45 48 50 52 53 55 55 55 55 58 57 61 62 65 66 67 68 68 68 67 67 67 66 69 70 71 72 72 72 73 74 74 74 74 73 72 73 73 73 72
42 42 40 39 40 29 36 39 39 44 47 49 49 52 53 54 54 54 56 57 61 63 64 65 66 67 68 67 67 66 66 67 69 70 71 72 72 72 73 73 73 73 73 74 74 73 74 74 73
45 39 24 26 27 24 25 38 33 33 40 46 49 50 52 53 53 54 55 58 59 62 64 65 66 66 67 68 67 66 66 67 68 69 69 70 71 72 72 73 73 74 73 73 73 74 74 74 74
37 23 16 14 17 17 33 34 35 32 35 41 46 50 52 53 53 53 55 57 59 61 63 64 66 66 66 67 67 66 66 67 67 69 69 70 71 71 72 72 73 73 74 74 74 73 73 75 75
21 21 13 17 16 17 32 34 33 27 41 43 42 46 51 51 53 53 55 57 59 61 62 64 65 65 66 67 67 67 67 67 68 69 70 70 70 71 72 72 73 74 74 74 74 73 73 75 75
18 18 19 16 26 18 19 22 24 23 34 39 47 51 50 51 52 54 55 56 59 60 62 63 65 65 66 66 67 67 67 67 68 69 69 69 71 71 72 72 72 73 74 74 74 73 74 75 75
24 16 15 13 14 15 15 19 21 23 32 35 45 51 54 56 55 53 55 55 59 60 61 62 65 65 65 66 66 66 67 68 68 69 69 71 71 72 73 72 72 72 73 74 74 74 74 74 74
18 19 16 14 15 11 13 17 21 23 37 39 43 49 54 56 58 55 55 56 58 60 61 62 63 64 64 65 66 66 67 69 70 69 70 70 71 72 71 72 72 72 72 73 74 74 74 74 74
18 17 18 15 18 15 16 17 23 24 30 38 49 49 54 57 57 54 56 58 60 61 61 62 62 62 64 65 66 66 67 68 68 70 71 71 70 71 71 72 71 71 71 72 73 73 73 73 73
Lifted_Index
-3 -4 -3 -2 -1 -1 -1 -2 -2 -2 -2 -1 0 0 -0 -1 -1 -1 -0 -1 -2 -2 -3 -4 -4 -4 -4 -4 -4 -4 -4 -4 -4 -4 -4 -4 -4 -4 -3 -3 -4 -4 -4 -4 -4 -4 -4 -4 -4
-4 -4 -3 -2 -1 -1 -1 -1 -2 -2 -2 -1 -0 -0 -1 -1 -1 -1 -1 -1 -2 -3 -4 -4 -4 -4 -4 -4 -4 -4 -4 -4 -4 -4 -4 -4 -3 -3 -3 -3 -4 -4 -4 -4 -4 -4 -3 -3 -3
-3 -3 -2 -1 -1 -1 -1 -1 -2 -2 -2 -1 -1 -1 -1 -1 -1 -1 -1 -2 -3 -4 -4 -4 -4 -4 -4 -4 -4 -4 -4 -4 -4 -4 -4 -4 -3 -3 -3 -3 -3 -3 -3 -3 -4 -3 -3 -3 -3
-2 -1 -1 -1 -1 -1 -1 -2 -2 -2 -2 -2 -1 -1 -0 -0 -1 -1 -2 -3 -4 -4 -4 -4 -4 -4 -4 -5 -5 -4 -4 -4 -4 -4 -4 -3 -3 -2 -3 -3 -3 -3 -3 -3 -3 -3 -3 -3 -3
-1 -0 -0 -1 -1 -1 -2 -2 -2 -3 -3 -2 -1 -1 -0 -0 -1 -2 -3 -3 -4 -4 -4 -4 -5 -5 -5 -5 -5 -4 -4 -4 -4 -4 -4 -3 -3 -3 -3 -4 -3 -3 -3 -3 -3 -3 -3 -3 -3
-0 -0 -0 -1 -2 -2 -2 -2 -3 -3 -3 -3 -2 -1 -1 -1 -1 -2 -3 -3 -4 -4 -4 -4 -5 -5 -5 -5 -5 -4 -4 -4 -4 -4 -4 -3 -3 -3 -4 -4 -3 -3 -3 -3 -3 -3 -3 -3 -3
-1 -1 -1 -2 -2 -2 -2 -2 -3 -3 -4 -3 -2 -1 -1 -1 -2 -2 -2 -3 -4 -4 -4 -4 -4 -5 -5 -4 -5 -4 -4 -4 -4 -4 -4 -4 -4 -4 -4 -4 -3 -3 -3 -3 -3 -3 -3 -3 -3
-2 -2 -2 -2 -2 -2 -2 -2 -3 -4 -4 -3 -2 -1 -0 -1 -2 -2 -2 -3 -4 -4 -4 -4 -4 -4 -4 -4 -4 -5 -4 -4 -4 -5 -4 -4 -4 -4 -4 -4 -4 -3 -3 -3 -3 -3 -3 -3 -3
-2 -2 -2 -2 -2 -2 -2 -2 -3 -4 -4 -3 -2 -1 -0 -1 -2 -2 -2 -3 -4 -4 -4 -4 -4 -4 -4 -4 -4 -4 -4 -4 -4 -5 -5 -4 -4 -4 -4 -4 -4 -4 -4 -3 -3 -3 -3 -3 -3
-2 -2 -2 -2 -2 -2 -2 -2 -3 -3 -3 -3 -2 -2 -1 -1 -1 -2 -2 -3 -3 -4 -4 -4 -4 -4 -4 -4 -4 -4 -4 -4 -4 -5 -4 -4 -4 -3 -4 -4 -4 -4 -4 -4 -3 -3 -3 -3 -2
-1 -1 -1 -2 -2 -2 -2 -2 -2 -2 -2 -2 -2 -2 -1 -1 -1 -1 -2 -2 -3 -3 -3 -4 -4 -4 -4 -4 -4 -4 -4 -4 -4 -4 -4 -4 -3 -3 -3 -3 -3 -3 -3 -3 -3 -3 -2 -2 -2
-0 -0 -1 -1 -2 -2 -2 -2 -2 -2 -2 -2 -2 -1 -1 -1 -1 -1 -2 -2 -2 -2 -3 -4 -4 -4 -4 -4 -4 -3 -3 -4 -4 -4 -3 -3 -3 -3 -3 -3 -3 -3 -3 -3 -2 -2 -2 -2 -2
-0 -1 -1 -1 -1 -1 -1 -2 -2 -2 -2 -2 -1 -1 -1 -0 -1 -1 -1 -2 -2 -2 -2 -3 -4 -3 -3 -3 -3 -3 -3 -3 -3 -3 -3 -3 -3 -2 -2 -3 -2 -2 -2 -2 -2 -2 -2 -2 -2
-0 -0 -0 -0 -1 -1 -2 -2 -2 -2 -2 -2 -1 -1 -1 -0 -0 -1 -2 -2 -2 -2 -2 -2 -3 -3 -3 -3 -3 -3 -2 -2 -2 -2 -2 -2 -2 -2 -2 -2 -2 -3 -3 -2 -2 -2 -2 -2 -2
-0 -0 0 -0 -1 -1 -2 -2 -2 -2 -2 -2 -1 -1 -1 -1 -1 -1 -2 -2 -2 -2 -1 -2 -2 -3 -2 -2 -2 -2 -2 -1 -1 -1 -2 -2 -2 -2 -2 -2 -3 -3 -3 -3 -3 -3 -3 -3 -2
-0 0 0 -0 -1 -1 -1 -1 -1 -2 -2 -2 -1 -1 -1 -1 -1 -1 -2 -2 -2 -1 -1 -2 -2 -2 -2 -2 -2 -2 -1 -1 -1 -1 -1 -2 -2 -2 -2 -3 -3 -3 -3 -3 -3 -4 -4 -3 -3
-0 0 0 -0 -1 -1 -1 -1 -1 -1 -2 -2 -1 -1 -1 -1 -1 -1 -1 -1 -1 -1 -1 -1 -2 -2 -2 -2 -2 -2 -2 -2 -2 -1 -1 -2 -2 -2 -3 -3 -3 -3 -3 -3 -3 -4 -4 -4 -4
-1 -0 0 0 0 -0 -0 -0 -0 -1 -2 -2 -1 -1 -1 -1 -0 -0 -1 -1 -1 -1 -1 -1 -2 -2 -2 -2 -2 -2 -2 -2 -2 -2 -2 -2 -2 -3 -3 -3 -3 -3 -3 -3 -4 -4 -4 -4 -4
-1 -0 0 1 1 1 1 1 0 -0 -1 -2 -1 -1 -1 -1 -0 0 0 -0 -1 -1 -1 -1 -2 -2 -2 -2 -2 -2 -2 -2 -3 -3 -3 -3 -3 -3 -3 -3 -4 -4 -4 -4 -4 -5 -5 -5 -5
-1 -0 0 1 1 1 1 1 1 0 -1 -1 -1 -1 -1 -1 -0 0 0 -0 -1 -1 -1 -2 -2 -2 -2 -2 -2 -2 -2 -2 -2 -3 -3 -3 -3 -3 -3 -4 -4 -4 -4 -4 -5 -5 -5 -5 -5
-1 -0 1 1 1 1 1 2 2 1 -0 -1 -1 -1 -1 -1 -1 -1 -1 -1 -1 -1 -1 -2 -2 -2 -2 -2 -2 -2 -2 -2 -2 -3 -3 -3 -3 -3 -4 -4 -4 -5 -5 -4 -5 -5 -5 -5 -6
-1 -0 1 1 1 1 1 1 1 1 0 -0 -1 -1 -1 -1 -1 -1 -1 -1 -1 -1 -1 -1 -2 -2 -2 -2 -2 -2 -2 -2 -2 -2 -3 -3 -3 -3 -4 -4 -5 -5 -5 -5 -5 -5 -5 -6 -6
-0 0 1 1 1 1 1 1 1 1 1 0 -1 -1 -0 -0 -0 -0 -1 -1 -1 -1 -1 -1 -1 -2 -2 -2 -2 -2 -1 -1 -2 -2 -3 -3 -3 -3 -4 -4 -5 -5 -5 -5 -5 -5 -6 -6 -7
0 1 1 1 0 0 1 1 1 1 1 1 0 -0 -0 0 -0 -0 -0 -0 -0 -0 -1 -1 -1 -1 -2 -2 -2 -2 -1 -1 -1 -2 -2 -3 -3 -3 -3 -4 -4 -5 -5 -5 -5 -5 -6 -6 -7
1 1 0 0 -0 -0 0 0 1 1 1 1 1 0 0 0 -0 -0 -0 -0 -0 -0 -0 -0 -0 -1 -1 -1 -1 -1 -1 -1 -1 -2 -2 -2 -3 -3 -3 -3 -4 -4 -5 -5 -5 -5 -5 -6 -6
1 1 0 -0 -0 -0 -0 0 1 1 1 1 1 1 1 0 -0 -1 -0 -0 -0 -0 -0 -0 -0 -0 -1 -1 -1 -1 -1 -1 -1 -1 -2 -2 -2 -3 -3 -3 -4 -4 -5 -5 -5 -5 -5 -5 -6
1 1 1 0 -0 -0 -0 -0 0 1 1 1 1 1 0 0 -0 -0 -0 -0 -0 -0 -0 -0 -0 -0 -0 -0 -1 -1 -1 -1 -1 -1 -2 -2 -2 -3 -3 -3 -3 -4 -4 -5 -5 -5 -5 -6 -6
1 1 1 1 0 -0 -0 -0 0 0 1 1 1 0 -0 -0 0 -0 -1 -0 -0 -0 -0 -0 -0 -0 -0 -1 -1 -1 -2 -1 -1 -1 -1 -2 -2 -3 -3 -4 -3 -4 -4 -4 -5 -5 -6 -6 -6
2 2 2 1 1 -0 -0 0 1 1 1 1 1 0 -1 -1 -0 -0 -1 -1 -1 -0 -1 -1 -1 -1 -1 -1 -2 -2 -2 -2 -1 -1 -1 -2 -2 -3 -3 -4 -3 -4 -4 -4 -5 -5 -5 -6 -6
3 3 3 2 1 0 -0 0 2 2 1 1 0 -0 -1 -1 -0 -0 -1 -1 -1 -1 -1 -1 -1 -1 -1 -2 -2 -2 -2 -2 -2 -2 -2 -2 -3 -3 -3 -3 -3 -4 -4 -4 -5 -5 -5 -5 -6